Weather History for Covington, KY

Change the Weather History Date:

Wednesday, December 4, 2013

  Actual Average Record
Temperature  
Mean Temperature 55 °F 38 °F  
Max Temperature 63 °F 45 °F 72 °F (1998)
Min Temperature 46 °F 30 °F 10 °F (1991)
Degree Days  
Heating Degree Days 10 28  
Month to date heating degree days 69 108  
Since 1 July heating degree days 1105 1068  
Cooling Degree Days 0 0  
Month to date cooling degree days 0 0  
Year to date cooling degree days 1150 1121  
Growing Degree Days 4 (Base 50)    
Moisture  
Dew Point 52 °F    
Average Humidity 89    
Maximum Humidity 100    
Minimum Humidity 78    
Precipitation  
Precipitation T in 0.12 in 2.36 in (1880)
Month to date precipitation T 0.44  
Year to date precipitation 44.57 39.59  
Snow  
Snow 0.00 in 0.10 in 3.50 in (1898)
Month to date snowfall 0.0 0.4  
Since 1 July snowfall 2.4 1.2  
Snow Depth 0.00 in    
Sea Level Pressure  
Sea Level Pressure 29.80 in    
Wind  
Wind Speed 9 mph (SSE)    
Max Wind Speed 16 mph    
Max Gust Speed 21 mph    
Visibility 6 miles    
Events Rain    
T = Trace of Precipitation, MM = Missing Value Source: NWS Daily Summary

Daily Weather History Graph

Daily Weather History Graph

Search for Another Location

Airport:

Trip Planner

Search our weather history database for the weather conditions in past years. The results will help you decide how hot, cold, wet, or windy it might be!

Date:

Astronomy

Dec. 04, 2013 Rise Set
Actual Time 7:41 AM EST 5:16 PM EST
Civil Twilight 7:12 AM EST 5:45 PM EST
Nautical Twilight 6:38 AM EST 6:19 PM EST
Astronomical Twilight 6:06 AM EST 6:51 PM EST
Moon 9:09 AM EST (12/4) 7:25 PM EST (12/4)
Length of Visible Light 10h 33m
Length of Day
9h 34m
Waxing Crescent, 4% of the Moon is Illuminated
Dec 4
Waxing Crescent
Dec 9
First Quarter
Dec 17
Full
Dec 25
Last Quarter
Jan 1
New

Hourly Weather History & Observations

Time (EST) Temp. Dew Point Humidity Pressure Visibility Wind Dir Wind Speed Gust Speed Precip Events Conditions
12:41 AM 48.2 °F 46.4 °F 93% 29.84 in 7.0 mi SE 4.6 mph - N/A   Overcast
12:52 AM 48.0 °F 46.0 °F 93% 29.83 in 7.0 mi SE 4.6 mph - N/A   Overcast
1:52 AM 46.9 °F 45.0 °F 93% 29.81 in 7.0 mi SE 6.9 mph - N/A   Mostly Cloudy
2:52 AM 46.9 °F 45.0 °F 93% 29.82 in 6.0 mi South 6.9 mph - N/A   Overcast
3:52 AM 48.0 °F 46.9 °F 96% 29.84 in 6.0 mi South 4.6 mph - N/A   Overcast
4:52 AM 48.9 °F 48.0 °F 97% 29.84 in 5.0 mi SSE 5.8 mph - N/A   Overcast
5:52 AM 48.9 °F 48.0 °F 97% 29.84 in 5.0 mi SSE 5.8 mph - N/A   Overcast
6:20 AM 48.2 °F 48.2 °F 100% 29.84 in 5.0 mi SSE 4.6 mph - N/A   Overcast
6:52 AM 48.9 °F 48.0 °F 97% 29.84 in 5.0 mi SSE 5.8 mph - N/A   Overcast
6:59 AM 48.2 °F 48.2 °F 100% 29.85 in 4.0 mi SSE 4.6 mph - N/A   Overcast
7:37 AM 48.2 °F 48.2 °F 100% 29.85 in 4.0 mi SSE 4.6 mph - N/A   Overcast
7:52 AM 50.0 °F 48.9 °F 96% 29.85 in 3.0 mi SSE 4.6 mph - N/A   Overcast
8:44 AM 51.8 °F 50.0 °F 94% 29.87 in 3.0 mi SSE 9.2 mph - N/A   Overcast
8:52 AM 51.1 °F 50.0 °F 96% 29.86 in 3.0 mi SE 6.9 mph - N/A   Overcast
9:52 AM 54.0 °F 51.1 °F 90% 29.86 in 4.0 mi SSE 9.2 mph - N/A   Overcast
10:52 AM 54.0 °F 52.0 °F 93% 29.85 in 6.0 mi SSE 11.5 mph - 0.00 in   Overcast
11:12 AM 55.4 °F 51.8 °F 88% 29.84 in 5.0 mi SSE 13.8 mph - N/A   Overcast
11:52 AM 57.0 °F 54.0 °F 89% 29.81 in 6.0 mi SSE 12.7 mph - 0.00 in   Overcast
12:36 PM 57.2 °F 55.4 °F 94% 29.80 in 6.0 mi SSE 10.4 mph - 0.00 in Rain Light Rain
12:52 PM 57.9 °F 55.0 °F 90% 29.78 in 5.0 mi SSE 10.4 mph - 0.00 in   Overcast
1:52 PM 60.1 °F 55.9 °F 86% 29.75 in 7.0 mi SSE 11.5 mph 18.4 mph N/A   Overcast
2:02 PM 60.8 °F 55.4 °F 82% 29.76 in 7.0 mi SSE 11.5 mph - N/A   Overcast
2:52 PM 61.0 °F 57.0 °F 87% 29.74 in 7.0 mi SSE 12.7 mph - N/A   Overcast
3:04 PM 62.6 °F 57.2 °F 82% 29.73 in 8.0 mi SE 12.7 mph - N/A   Overcast
3:52 PM 62.1 °F 57.0 °F 84% 29.72 in 9.0 mi SSE 10.4 mph - N/A   Mostly Cloudy
4:52 PM 61.0 °F 57.0 °F 87% 29.71 in 9.0 mi SSE 11.5 mph - N/A   Scattered Clouds
5:52 PM 59.0 °F 55.9 °F 90% 29.73 in 9.0 mi South 8.1 mph - N/A   Scattered Clouds
6:52 PM 59.0 °F 55.9 °F 90% 29.73 in 9.0 mi SSE 10.4 mph - N/A   Partly Cloudy
7:52 PM 59.0 °F 55.0 °F 87% 29.73 in 9.0 mi SSE 11.5 mph - N/A   Clear
8:52 PM 57.0 °F 54.0 °F 89% 29.73 in 9.0 mi South 11.5 mph - N/A   Clear
9:52 PM 60.1 °F 55.0 °F 83% 29.75 in 10.0 mi South 10.4 mph - N/A   Mostly Cloudy
10:52 PM 62.1 °F 55.9 °F 80% 29.76 in 9.0 mi South 12.7 mph - N/A   Mostly Cloudy
11:52 PM 63.0 °F 55.9 °F 78% 29.76 in 9.0 mi South 13.8 mph - N/A   Scattered Clouds